Weather in Offenbach am Main

Germany     50°05′42″N   8°46′55″E
temp.,
°C
wind,
m/s
gust,
m/s
humid.,
%
clouds,
%
prec.,
mm/h
press.,
hPa
HPBL,
m
14 august, sun
sun1423:00+24e310450 0.0 1013493
02:00+21ene26610 0.0 1013233
05:00+20ne24730 0.0 1011170
08:00+21ene247099 0.0 1011280
11:00+27ese344270 0.0 10101086
14:00+32ese242720 0.0 10072527
17:00+33ese232021 0.0 10053107
20:00+30e2525100 0.0 1004168
15 august, mon
mon1523:00+27ese4114298 0.0 1004542
02:00+25sw4840100 0.0 1004325
05:00+22sw5106181 0.0 1005618
08:00+20sw486893 0.0 1006647
11:00+25sw4648100 0.0 10061127
14:00+29sw363219 0.0 10052350
17:00+29wsw553089 0.0 10042017
20:00+27sw373578 0.1 1004573
16 august, tue
tue1623:00+23ssw25505 0.2 1007387
02:00+21ssw365927 0.2 1008336
05:00+19ssw25714 0.0 1008341
08:00+20ssw24699 0.0 1009378
11:00+25sw224556 0.0 1009925
14:00+30wsw23295 0.0 10091903
17:00+31se2326100 0.0 10082492
20:00+29nne233275 0.0 1008132
17 august, wed
wed1723:00+24ne25422 0.0 1009147
02:00+22ene1346100 0.0 100988
05:00+21ne125099 0.0 100945
08:00+22sw3549100 0.0 1010393
11:00+22w4661100 0.2 1012715
14:00+24w235277 0.3 10121162
17:00+26w344310 0.0 10111688
20:00+24nw22490 0.0 1010229
18 august, thu
thu1823:00+22n2561100 0.0 1011218
02:00+19nne257772 0.0 1012260
05:00+18nnw247986 0.0 1012157
08:00+18ene1277100 0.0 1013312
11:00+23nne115790 0.0 1013903
14:00+27w1141100 0.0 10121845
17:00+24w4551100 0.2 10121082
20:00+21ne3667100 0.9 1013603